• In Germany
  • List of Countries
  • For 7 days
  • Water Temperature
  • Satellite Maps
  • Weather Map
  • Weather Widgets
  • user-avatar
    Login

    Hourly Weather Linz

    Today, 24 November, Friday

    Time Temperature Precipitation Wind Pressure Humidity
    00:00 +7°C° 0 mm 1 mps 735 mmHg 73%
    01:00 +8°C° 0 mm 1 mps 735 mmHg 75%
    02:00 +8°C° 0 mm 1 mps 735 mmHg 75%
    03:00 +8°C° 0 mm 1 mps 735 mmHg 75%
    04:00 +8°C° 0 mm 1 mps 735 mmHg 76%
    05:00 +8°C° 0 mm 1 mps 735 mmHg 76%
    06:00 +7°C° 0 mm 1 mps 735 mmHg 77%
    07:00 +6°C° 0 mm 1 mps 735 mmHg 78%
    08:00 +8°C° 0 mm 1 mps 735 mmHg 74%
    09:00 +9°C° 0 mm 1 mps 734 mmHg 71%
    10:00 +11°C° 0 mm 1 mps 734 mmHg 68%
    11:00 +12°C° 0 mm 1 mps 734 mmHg 65%
    12:00 +13°C° 0 mm 1 mps 733 mmHg 63%
    13:00 +14°C° 0 mm 1 mps 733 mmHg 61%
    14:00 +13°C° 0 mm 1 mps 733 mmHg 65%
    15:00 +12°C° 0 mm 1 mps 733 mmHg 70%
    16:00 +11°C° 0 mm 1 mps 733 mmHg 75%
    17:00 +10°C° 0 mm 1 mps 733 mmHg 75%
    18:00 +10°C° 0 mm 1 mps 733 mmHg 75%
    19:00 +9°C° 0 mm 1 mps 733 mmHg 75%
    20:00 +9°C° 0 mm 1 mps 733 mmHg 74%
    21:00 +9°C° 0 mm 1 mps 733 mmHg 74%
    22:00 +9°C° 0 mm 1 mps 733 mmHg 73%
    23:00 +9°C° 0 mm 1 mps 733 mmHg 74%

    Tomorrow, 25 November, Saturday

    Time Temperature Precipitation Wind Pressure Humidity
    00:00 +8°C° 0 mm 1 mps 732 mmHg 76%
    01:00 +8°C° 0 mm 1 mps 732 mmHg 77%
    02:00 +7°C° 0 mm 1 mps 732 mmHg 78%
    03:00 +7°C° 0 mm 1 mps 731 mmHg 79%
    04:00 +7°C° 0 mm 1 mps 731 mmHg 80%
    05:00 +6°C° 0 mm 1 mps 730 mmHg 80%
    06:00 +6°C° 0 mm 1 mps 729 mmHg 81%
    07:00 +6°C° 0 mm 1 mps 728 mmHg 82%
    08:00 +7°C° 0 mm 1 mps 728 mmHg 79%
    09:00 +7°C° 0 mm 2 mps 727 mmHg 77%
    10:00 +8°C° 0 mm 2 mps 726 mmHg 74%
    11:00 +9°C° 0 mm 2 mps 726 mmHg 71%
    12:00 +10°C° 0 mm 3 mps 726 mmHg 69%
    13:00 +11°C° 0 mm 3 mps 726 mmHg 66%
    14:00 +10°C° 0.1 mm 4 mps 726 mmHg 71%
    15:00 +8°C° 0.1 mm 5 mps 727 mmHg 76%
    16:00 +8°C° 0.1 mm 5 mps 728 mmHg 81%
    17:00 +7°C° 0.3 mm 5 mps 728 mmHg 82%
    18:00 +7°C° 0.3 mm 5 mps 729 mmHg 82%
    19:00 +6°C° 0.3 mm 5 mps 730 mmHg 83%
    20:00 +6°C° 0.2 mm 4 mps 731 mmHg 83%
    21:00 +5°C° 0.2 mm 4 mps 731 mmHg 84%
    22:00 +5°C° 0.2 mm 3 mps 732 mmHg 85%
    23:00 +4°C° 0.1 mm 3 mps 732 mmHg 86%

    Day after tomorrow, 26 November, Sunday

    Time Temperature Precipitation Wind Pressure Humidity
    00:00 +4°C° 0.1 mm 3 mps 732 mmHg 87%
    01:00 +4°C° 0.1 mm 3 mps 733 mmHg 88%
    02:00 +5°C° 0.1 mm 2 mps 733 mmHg 89%
    03:00 +4°C° 0.1 mm 2 mps 733 mmHg 90%
    04:00 +4°C° 0.1 mm 2 mps 734 mmHg 91%
    05:00 +4°C° 0.2 mm 2 mps 734 mmHg 90%
    06:00 +3°C° 0.2 mm 2 mps 735 mmHg 90%
    07:00 +3°C° 0.2 mm 2 mps 735 mmHg 90%
    08:00 +3°C° 0.1 mm 2 mps 736 mmHg 87%
    09:00 +4°C° 0.1 mm 2 mps 736 mmHg 85%
    10:00 +3°C° 0.1 mm 3 mps 737 mmHg 82%
    11:00 +3°C° 0.2 mm 3 mps 737 mmHg 80%
    12:00 +3°C° 0.2 mm 4 mps 737 mmHg 78%
    13:00 +3°C° 0.2 mm 4 mps 737 mmHg 76%
    14:00 +3°C° 0.2 mm 4 mps 737 mmHg 78%
    15:00 +1°C° 0.2 mm 4 mps 738 mmHg 79%
    16:00 0°C° 0.2 mm 4 mps 738 mmHg 80%
    17:00 0°C° 0 mm 4 mps 739 mmHg 82%
    18:00 0°C° 0 mm 3 mps 739 mmHg 84%
    19:00 0°C° 0 mm 3 mps 740 mmHg 86%
    20:00 -1°C° 0 mm 3 mps 740 mmHg 87%
    21:00 -1°C° 0 mm 3 mps 741 mmHg 87%
    22:00 -1°C° 0 mm 3 mps 741 mmHg 87%
    23:00 -1°C° 0 mm 3 mps 741 mmHg 87%

    27 November, Monday

    Time Temperature Precipitation Wind Pressure Humidity
    00:00 -1°C° 0 mm 3 mps 741 mmHg 86%
    01:00 -2°C° 0 mm 4 mps 741 mmHg 86%
    02:00 -2°C° 0 mm 4 mps 741 mmHg 85%
    03:00 -2°C° 0 mm 4 mps 741 mmHg 85%
    04:00 -2°C° 0 mm 4 mps 741 mmHg 84%
    05:00 -2°C° 0.1 mm 4 mps 741 mmHg 84%
    06:00 -2°C° 0.1 mm 4 mps 742 mmHg 84%
    07:00 -2°C° 0.1 mm 4 mps 742 mmHg 84%
    08:00 -1°C° 0 mm 4 mps 742 mmHg 82%
    09:00 -1°C° 0 mm 4 mps 742 mmHg 81%
    10:00 0°C° 0 mm 4 mps 742 mmHg 79%
    11:00 0°C° 0 mm 4 mps 742 mmHg 77%
    12:00 0°C° 0 mm 4 mps 741 mmHg 76%
    13:00 +1°C° 0 mm 4 mps 741 mmHg 74%
    14:00 +1°C° 0 mm 3 mps 741 mmHg 77%
    15:00 +1°C° 0 mm 3 mps 741 mmHg 79%
    16:00 +1°C° 0 mm 2 mps 740 mmHg 81%
    17:00 +1°C° 0 mm 2 mps 740 mmHg 84%
    18:00 -1°C° 0 mm 2 mps 740 mmHg 87%
    19:00 0°C° 0 mm 1 mps 740 mmHg 91%
    20:00 0°C° 0 mm 1 mps 740 mmHg 90%
    21:00 -1°C° 0 mm 1 mps 740 mmHg 89%
    22:00 -1°C° 0 mm 1 mps 740 mmHg 89%
    23:00 -1°C° 0 mm 1 mps 739 mmHg 87%

    28 November, Tuesday

    Time Temperature Precipitation Wind Pressure Humidity
    00:00 -1°C° 0 mm 1 mps 739 mmHg 85%
    01:00 -1°C° 0 mm 1 mps 738 mmHg 84%
    02:00 -1°C° 0 mm 1 mps 738 mmHg 82%
    03:00 -1°C° 0 mm 1 mps 737 mmHg 80%
    04:00 -1°C° 0 mm 1 mps 737 mmHg 77%
    05:00 -1°C° 0 mm 1 mps 736 mmHg 76%
    06:00 -1°C° 0 mm 1 mps 736 mmHg 74%
    07:00 -1°C° 0 mm 1 mps 736 mmHg 72%
    08:00 +1°C° 0 mm 1 mps 735 mmHg 67%
    09:00 +2°C° 0 mm 1 mps 734 mmHg 61%
    10:00 +3°C° 0 mm 1 mps 734 mmHg 55%
    11:00 +4°C° 0 mm 1 mps 733 mmHg 53%
    12:00 +5°C° 0 mm 1 mps 732 mmHg 51%
    13:00 +6°C° 0 mm 1 mps 731 mmHg 49%
    14:00 +5°C° 0 mm 1 mps 730 mmHg 55%
    15:00 +4°C° 0 mm 1 mps 730 mmHg 60%
    16:00 +3°C° 0 mm 1 mps 729 mmHg 66%
    17:00 +3°C° 0 mm 1 mps 729 mmHg 66%
    18:00 +3°C° 0 mm 1 mps 729 mmHg 66%
    19:00 +2°C° 0 mm 1 mps 728 mmHg 67%
    20:00 +2°C° 0 mm 1 mps 728 mmHg 67%
    21:00 +2°C° 0 mm 1 mps 728 mmHg 68%
    22:00 +2°C° 0 mm 1 mps 727 mmHg 69%
    23:00 +2°C° 0 mm 1 mps 727 mmHg 69%

    29 November, Wednesday

    Time Temperature Precipitation Wind Pressure Humidity
    00:00 +2°C° 0 mm 1 mps 727 mmHg 70%
    01:00 +2°C° 0 mm 1 mps 727 mmHg 71%
    02:00 +1°C° 0 mm 1 mps 727 mmHg 72%
    03:00 +1°C° 0 mm 1 mps 726 mmHg 73%
    04:00 +1°C° 0 mm 1 mps 726 mmHg 73%
    05:00 0°C° 0 mm 1 mps 726 mmHg 73%
    06:00 0°C° 0 mm 1 mps 726 mmHg 72%
    07:00 0°C° 0 mm 1 mps 726 mmHg 72%
    08:00 +1°C° 0 mm 1 mps 726 mmHg 68%
    09:00 +3°C° 0 mm 1 mps 726 mmHg 64%
    10:00 +4°C° 0 mm 1 mps 726 mmHg 59%
    11:00 +5°C° 0 mm 1 mps 726 mmHg 58%
    12:00 +5°C° 0 mm 1 mps 726 mmHg 57%
    13:00 +5°C° 0 mm 0 mps 725 mmHg 55%
    14:00 +5°C° 0 mm 1 mps 725 mmHg 61%
    15:00 +4°C° 0 mm 1 mps 725 mmHg 67%
    16:00 +3°C° 0 mm 1 mps 725 mmHg 73%
    17:00 +3°C° 0.1 mm 1 mps 725 mmHg 75%
    18:00 +3°C° 0.1 mm 1 mps 725 mmHg 76%
    19:00 +3°C° 0.1 mm 1 mps 725 mmHg 78%
    20:00 +2°C° 0.3 mm 1 mps 725 mmHg 81%
    21:00 +2°C° 0.3 mm 1 mps 725 mmHg 85%
    22:00 +2°C° 0.3 mm 1 mps 724 mmHg 88%
    23:00 +2°C° 0.7 mm 1 mps 724 mmHg 90%
    Show more